Regional Weather Roundup
Issued by NWS

Home | Current Version | Previous Version | Graphics & Text | Print | Product List | Glossary Off
Versions: 1 2 3 4 5 6 7 8 9 10 11 12 13 14 15 16 17 18 19 20 21 22 23 24 25 26 27 28 29 30 31 32 33 34 35 36 37 38 39 40 41 42 43 44 45 46 47 48 49 50

000
ASUS43 KTOP 021908
RWRKS

WEATHER ROUNDUP FOR KANSAS
NATIONAL WEATHER SERVICE GOODLAND KS
100 PM CST MON MAR 02 2015

NOTE:  "FAIR" INDICATES FEW OR NO CLOUDS BELOW 12,000 FEET WITH NO
SIGNIFICANT WEATHER AND/OR OBSTRUCTIONS TO VISIBILITY.

KSZ001>006-013>018-027>032-041>047-022000-
NORTHWEST KANSAS

CITY           SKY/WX    TMP DP  RH WIND       PRES   REMARKS
GOODLAND       CLOUDY    29  22  75 S23G33    30.01F WCI  15
HAYS           CLOUDY    34  18  51 S23G30    30.21F WCI  22
HILL CITY      PTSUNNY   35  21  56 S20G28    30.19F WCI  24
RUSSELL        CLOUDY    35  18  49 S23G32    30.23F WCI  23
$$

KSZ061>065-074>080-084>089-022000-
SOUTHWEST KANSAS

CITY           SKY/WX    TMP DP  RH WIND       PRES   REMARKS
ELKHART          N/A    N/A N/A N/A MISG        N/A
GARDEN CITY    CLOUDY    29  24  82 S20       30.13F WCI  16
GREAT BEND     CLOUDY    34  19  55 S20G29    30.24F WCI  22
LIBERAL        CLOUDY    30  25  80 S17       30.17F WCI  18
PRATT          CLOUDY    32  21  64 S9        30.26F
$$

KSZ066>073-081>083-090>101-022000-
SOUTHEAST KANSAS

CITY           SKY/WX    TMP DP  RH WIND       PRES   REMARKS
MEDICINE LODGE   N/A     31  21  66 VRB7      30.26F
NEWTON         CLOUDY    34  18  51 SE13      30.31F WCI  25
PARSONS        CLOUDY    39  22  50 SE9       30.35F
WICHITA INTL   CLOUDY    34  18  52 E13       30.29F WCI  25
WICHITA JABRA  CLOUDY    33  19  56 E13       30.30F WCI  24
WICHITA MCCONL CLOUDY    35  19  52 E13       30.29F WCI  26
WINFIELD       CLOUDY    36  23  59 SE8       30.32F
$$

KSZ007>012-019>026-033>040-048>060-102>105-022000-
NORTHEAST KANSAS

CITY           SKY/WX    TMP DP  RH WIND       PRES   REMARKS
CONCORDIA      PTSUNNY   38  21  50 S18G28    30.29  WCI  28
MARYSVILLE     PTSUNNY   39  23  52 S13G21    30.32F WCI  32
OLATHE IND     PTSUNNY   35  21  56 SE13      30.37F WCI  26
OLATHE EXE     PTSUNNY   35  17  47 SE15G23   30.36F WCI  25
SALINA         PTSUNNY   37  18  46 SE20      30.31F WCI  27
TOPEKA BILLARD MOSUNNY   39  20  46 SE14      30.36F WCI  31
TOPEKA FORBES  MOSUNNY   39  20  46 SE15      30.34F WCI  31
$$


USA.gov is the U.S. government's official web portal to all federal, state and local government web resources and services.